Tracking 31027 objects as of 19-Jul-2025
HD Live streaming from Space Station
objects crossing your sky now

FENGYUN 1C DEB

Track FENGYUN 1C DEB now!
10-day predictions


NORAD ID: 33724
Int'l Code: 1999-025DHM
Perigee: 816.1 km
Apogee: 853.7 km
Inclination: 98.6 °
Period: 101.5 minutes
Semi major axis: 7205 km
RCS: 0.0006 m2 (small)
Launch date: May 10, 1999
Source: People's Republic of China (PRC)
Launch site: Taiyaun Space Center, China (TSC)

Note: This is SATELLITE DEBRIS
Your satellite tracking list
Your tracking list is empty




NASA's NSSDC Master Catalog

Two Line Element Set (TLE):
1 33724U 99025DHM 25199.81507900  .00000598  00000-0  30461-3 0  9999
2 33724  98.6079 214.2476 0026098 246.2985 293.4565 14.19290679918771
Source of the keplerian elements: AFSPC